Weather History for Santa Maria, CA

Change the Weather History Date:

Thursday, May 16, 2013

  Actual Average Record
Temperature  
Mean Temperature 58 °F 58 °F  
Max Temperature 67 °F 69 °F 94 °F (1967)
Min Temperature 48 °F 48 °F 32 °F (1919)
Degree Days  
Heating Degree Days 7 7  
Month to date heating degree days 51 122  
Since 1 July heating degree days 2226 2581  
Cooling Degree Days 0 0  
Month to date cooling degree days 8 0  
Year to date cooling degree days 10 6  
Growing Degree Days 9 (Base 50)    
Moisture  
Dew Point 51 °F    
Average Humidity 80    
Maximum Humidity 96    
Minimum Humidity 63    
Precipitation  
Precipitation 0.00 in 0.01 in 0.30 in (1996)
Month to date precipitation 0.04 0.22  
Year to date precipitation 2.49 9.58  
Since 1 July precipitation 6.22 13.82  
Sea Level Pressure  
Sea Level Pressure 30.00 in    
Wind  
Wind Speed 9 mph (WNW)    
Max Wind Speed 24 mph    
Max Gust Speed 30 mph    
Visibility 7 miles    
Events      
T = Trace of Precipitation, MM = Missing Value Source: NWS Daily Summary

Daily Weather History Graph

Daily Weather History Graph

Search for Another Location

Airport:

Trip Planner

Search our weather history database for the weather conditions in past years. The results will help you decide how hot, cold, wet, or windy it might be!

Date:

Astronomy

May. 16, 2013 Rise Set
Actual Time 5:57 AM PDT 7:59 PM PDT
Civil Twilight 5:29 AM PDT 8:27 PM PDT
Nautical Twilight 4:55 AM PDT 9:01 PM PDT
Astronomical Twilight 4:18 AM PDT 9:38 PM PDT
Moon 11:31 AM PDT (5/16) 12:26 AM PDT (5/16)
Length of Visible Light 14h 58m
Length of Day
14h 01m
Waxing Crescent, 36% of the Moon is Illuminated
May 16
Waxing Crescent
May 17
First Quarter
May 24
Full
May 31
Last Quarter
Jun 8
New

Hourly Weather History & Observations

Time (PDT) Temp. Dew Point Humidity Pressure Visibility Wind Dir Wind Speed Gust Speed Precip Events Conditions
12:11 AM 51.8 °F 48.2 °F 88% 30.03 in 4.0 mi Calm Calm - N/A   Overcast
12:20 AM 50.0 °F 48.2 °F 94% 30.03 in 5.0 mi Calm Calm - N/A   Overcast
12:51 AM 50.0 °F 48.9 °F 96% 30.03 in 2.5 mi Calm Calm - N/A   Overcast
1:06 AM 50.0 °F 46.4 °F 87% 30.02 in 6.0 mi Calm Calm - N/A   Overcast
1:51 AM 50.0 °F 48.0 °F 93% 30.02 in 5.0 mi NW 4.6 mph - N/A   Overcast
2:51 AM 51.1 °F 48.9 °F 92% 30.02 in 5.0 mi Calm Calm - N/A   Overcast
3:21 AM 51.8 °F 48.2 °F 88% 30.01 in 4.0 mi Calm Calm - N/A   Overcast
3:51 AM 51.1 °F 48.9 °F 92% 30.01 in 4.0 mi Calm Calm - N/A   Overcast
4:51 AM 52.0 °F 50.0 °F 93% 30.01 in 3.0 mi Calm Calm - N/A   Overcast
5:51 AM 52.0 °F 50.0 °F 93% 30.00 in 2.5 mi Calm Calm - N/A   Overcast
6:51 AM 52.0 °F 50.0 °F 93% 30.01 in 2.5 mi Calm Calm - N/A   Overcast
7:11 AM 53.6 °F 50.0 °F 88% 30.01 in 4.0 mi Calm Calm - N/A   Overcast
7:51 AM 54.0 °F 50.0 °F 86% 30.02 in 4.0 mi Calm Calm - N/A   Overcast
8:51 AM 54.0 °F 50.0 °F 86% 30.04 in 3.0 mi WNW 5.8 mph - N/A   Overcast
9:43 AM 60.8 °F 51.8 °F 72% 30.02 in 7.0 mi NNW 6.9 mph - N/A   Scattered Clouds
9:51 AM 60.1 °F 51.1 °F 72% 30.03 in 7.0 mi WNW 9.2 mph - N/A   Mostly Cloudy
10:51 AM 63.0 °F 51.1 °F 65% 30.01 in 9.0 mi WNW 8.1 mph - N/A   Mostly Cloudy
11:51 AM 62.1 °F 51.1 °F 67% 30.01 in 10.0 mi WNW 15.0 mph - N/A   Overcast
12:51 PM 63.0 °F 51.1 °F 65% 30.00 in 10.0 mi NW 15.0 mph - N/A   Overcast
1:51 PM 64.9 °F 51.1 °F 61% 30.00 in 10.0 mi WNW 17.3 mph - N/A   Overcast
2:51 PM 63.0 °F 52.0 °F 67% 30.00 in 10.0 mi NW 18.4 mph 27.6 mph N/A   Partly Cloudy
3:51 PM 60.1 °F 52.0 °F 75% 29.98 in 10.0 mi WNW 20.7 mph - N/A   Overcast
4:51 PM 61.0 °F 53.1 °F 75% 29.98 in 10.0 mi WNW 18.4 mph 24.2 mph N/A   Mostly Cloudy
5:51 PM 61.0 °F 53.1 °F 75% 29.97 in 10.0 mi WNW 21.9 mph - N/A   Mostly Cloudy
6:18 PM 60.8 °F 51.8 °F 72% 29.97 in 10.0 mi WNW 18.4 mph 28.8 mph N/A   Partly Cloudy
6:39 PM 57.2 °F 51.8 °F 82% 29.96 in 10.0 mi WNW 19.6 mph 27.6 mph N/A   Mostly Cloudy
6:51 PM 57.0 °F 52.0 °F 83% 29.97 in 10.0 mi WNW 20.7 mph 25.3 mph N/A   Overcast
7:51 PM 54.0 °F 51.1 °F 90% 29.99 in 10.0 mi WNW 12.7 mph - N/A   Mostly Cloudy
8:07 PM 53.6 °F 51.8 °F 94% 29.98 in 9.0 mi WNW 15.0 mph - N/A   Scattered Clouds
8:51 PM 53.1 °F 51.1 °F 93% 30.00 in 8.0 mi West 11.5 mph - N/A   Partly Cloudy
9:51 PM 53.1 °F 51.1 °F 93% 30.00 in 8.0 mi WNW 9.2 mph - N/A   Clear
10:12 PM 53.6 °F 51.8 °F 94% 30.00 in 7.0 mi WNW 8.1 mph - N/A   Scattered Clouds
10:22 PM 53.6 °F 51.8 °F 94% 30.00 in 7.0 mi WNW 9.2 mph - N/A   Mostly Cloudy
10:51 PM 54.0 °F 51.1 °F 90% 30.01 in 7.0 mi WNW 5.8 mph - N/A   Overcast
11:51 PM 53.1 °F 50.0 °F 89% 29.99 in 7.0 mi Calm Calm - N/A   Overcast